Regional Weather Roundup
Issued by NWS

Home | Current Version | Previous Version | Graphics & Text | Print | Product List | Glossary Off
Versions: 1 2 3 4 5 6 7 8 9 10 11 12 13 14 15 16 17 18 19 20 21 22 23 24 25 26 27 28 29 30 31 32 33 34 35 36 37 38 39 40 41 42 43 44 45 46 47 48 49 50

000
ASUS43 KLOT 271710
RWRIL

ILLINOIS REGIONAL WEATHER ROUNDUP
NATIONAL WEATHER SERVICE CHICAGO/ROMEOVILLE IL
1100 AM CST FRI FEB 27 2015

NOTE: "FAIR" INDICATES FEW OR NO CLOUDS BELOW 12,000 FEET WITH NO
SIGNIFICANT WEATHER AND/OR OBSTRUCTIONS TO VISIBILITY.

* THESE STATIONS ARE NOT UNDER NWS QUALITY CONTROL. THEY ALSO MAY NOT
  REPORT WEATHER SUCH AS PRECIPITATION OR FOG.

ILZ001-002-007-009-015-016-024-271800-
NORTHWEST ILLINOIS

CITY           SKY/WX    TMP DP  RH WIND       PRES   REMARKS
MOLINE         SUNNY      8  -5  55 W3        30.66
STERLING*      SUNNY      7  -6  56 W5        30.66R WCI  -2
SAVANNA*       SUNNY      2  -3  80 S6        30.65S WCI  -9
$$

ILZ003-004-008-010-011-017-018-271800-
NORTH CENTRAL ILLINOIS

CITY           SKY/WX    TMP DP  RH WIND       PRES   REMARKS
ROCKFORD       SUNNY      9  -6  50 NW3       30.63R
FREEPORT*      SUNNY      4  -7  59 W5        30.63S WCI  -6
ROCHELLE*      SUNNY     -1  -6  78 CALM      30.64R
DE KALB*       SUNNY      4  -6  63 W6        30.61R WCI  -7
PERU*          SUNNY      8  -4  60 NW5       30.66R WCI  -1
$$

ILZ005-006-012>014-019>023-271800-
NORTHEAST ILLINOIS

CITY           SKY/WX    TMP DP  RH WIND       PRES   REMARKS
CHICAGO-OHARE  SUNNY     12  -5  46 W14       30.60R WCI  -3
CHICAGO-MIDWAY SUNNY     15  -3  44 W8        30.61R WCI   4
AURORA         SUNNY      5  -4  66 W7        30.63  WCI  -7
LANSING*       SUNNY     15  -4  44 W8        30.61R WCI   3
JOLIET*        SUNNY      6  -6  56 W5        30.65R WCI  -2
WAUKEGAN       SUNNY     13  -6  42 W9        30.58R WCI   1
DUPAGE AIRPORT SUNNY     12  -6  44 W10       30.60  WCI  -1
KANKAKEE*      SUNNY      6  -1  73 W6        30.65R WCI  -5
WHEELING       SUNNY     14  -5  42 W12       30.61  WCI   0
MORRIS*        SUNNY      3  -4  72 W6        30.64R WCI  -8
ROMEOVILLE*    SUNNY     10  -3  55 W7        30.62R WCI  -1
NORTHERLY ISL    N/A     16  -3  43 W5          N/A  WCI   9
$$

LMZ740>746-271800-
SOUTHERN LAKE MICHIGAN

STATION/POSITION SKY/WX   TEMP    WIND        PRES    VSBY  WAVE
                          AIR SEA DIR/SP/G                  HT/PER
                          (F)     (DEG/KT/KT) (MB)    (MI)  (FT/S)
WAUKEGAN HARBOR            12     290/  8/ 11   N/A
HARRISON CRIB              12     280/  9/ 11   N/A
BURNHAM HARBOR             15     280/  7/ 10   N/A
CALUMET HARBOR             14     280/  5/ 11 1035.0R
MICHIGAN CITY              11     220/ 11/ 14   N/A
$$

ILZ025>027-034>036-040-047-049-050-058-095>099-271800-
WEST-CENTRAL ILLINOIS

CITY           SKY/WX    TMP DP  RH WIND       PRES   REMARKS
QUINCY         SUNNY      4  -5  66 NW3       30.66S
GALESBURG*     SUNNY      1  -6  75 W5        30.66S WCI  -9
MACOMB*        SUNNY      1  -5  74 CALM      30.70R
JACKSONVILLE*  SUNNY      7  -4  61 CALM      30.68R
PITTSFIELD*    SUNNY      8  -3  61 NW6       30.68S WCI  -2
$$

ILZ028>032-037-038-041>044-048-051>054-059>061-271800-
CENTRAL ILLINOIS

CITY           SKY/WX    TMP DP  RH WIND       PRES   REMARKS
PONTIAC        SUNNY      4  -3  71 W5        30.66R WCI  -5
BLOOMINGTON    SUNNY     10   1  67 CALM      30.64R
DECATUR          N/A     10  -2  58 CALM      30.66R
PEORIA         SUNNY     10  -4  53 W5        30.67S WCI   2
LACON*         SUNNY      6  -6  57 NW3       30.67R
LINCOLN*       SUNNY     10   0  61 CALM      30.69F
SPRINGFIELD    SUNNY      3  -4  72 SW6       30.68  WCI  -8
TAYLORVILLE    SUNNY      7  -4  61 SW6       30.67S WCI  -3
$$

ILZ033-039-045-046-055>057-062-063-271800-
EAST-CENTRAL ILLINOIS

CITY           SKY/WX    TMP DP  RH WIND       PRES   REMARKS
CHAMPAIGN      SUNNY      6  -2  69 W7        30.64R WCI  -6
DANVILLE*      SUNNY     12  -1  55 NW7       30.61S WCI   1
RANTOUL*       SUNNY     10   1  67 W3        30.64S
MATTOON        SUNNY      8  -1  66 NW6       30.64S WCI  -2
PARIS*         SUNNY      6  -1  71 W3        30.66S
$$

ILZ079-100>102-271800-
SOUTHWEST ILLINOIS

CITY           SKY/WX    TMP DP  RH WIND       PRES   REMARKS
ALTON          SUNNY     10  -6  48 W6        30.68S WCI   1
BELLEVILLE     SUNNY     16   1  50 N8        30.67S WCI   5
CAHOKIA*       SUNNY     14   0  53 NW6       30.68F WCI   5
SPARTA*        SUNNY     13   2  62 NW5       30.67S WCI   5
$$

ILZ064>066-069>071-074>076-080>082-084>086-088>090-092>094-271800-
SOUTH-CENTRAL ILLINOIS

CITY           SKY/WX    TMP DP  RH WIND       PRES   REMARKS
CARBONDALE     SUNNY     17   5  59 VRB3      30.67R
CAIRO*         SUNNY     20  10  63 NE9       30.66S WCI  10
EFFINGHAM*     SUNNY     10  -3  54 W5        30.68S WCI   2
MARION         SUNNY     18   7  62 N6        30.67R WCI   9
MT. VERNON     SUNNY     16   3  57 NE3       30.66F
CENTRALIA*     SUNNY     12   1  60 N5        30.66F WCI   4
SALEM*         SUNNY     12   0  60 N3        30.67S
METROPOLIS*    SUNNY     20  10  65 NE6       30.64S WCI  13
$$

ILZ067-068-072-073-078-083-087-091-271800-
SOUTHEAST ILLINOIS

CITY           SKY/WX    TMP DP  RH WIND       PRES   REMARKS
LAWRENCEVILLE  SUNNY     16   3  56 NW3       30.67S
FLORA*         SUNNY      8  -1  64 NW5       30.68S WCI   0
FAIRFIELD*     SUNNY     13   4  65 N6        30.66F WCI   4
HARRISBURG*    SUNNY     17   9  71 N6        30.67F WCI   8
ROBINSON*      SUNNY     14   1  56 CALM      30.68F
CARMI*         SUNNY     17  10  73 N7        30.66F WCI   8
$$

ABBREVIATIONS USED IN REMARKS
   TC - TEMPERATURE IN CELSIUS
  WCI - WIND CHILL INDEX
   HX - HEAT INDEX
  VSB - VISIBILITY
$$



USA.gov is the U.S. government's official web portal to all federal, state and local government web resources and services.